Mount Airy, NC

10:07 PM EST on December 08, 2019 (GMT -0500)
Mount Airy-Surry County

Weather History for KMWK - October, 2019

Change the Weather History Date:

Thursday, October 31, 2019

  Actual Average (KINT) Record (KINT)
Temperature  
Mean Temperature 61 °F -  
Max Temperature 77 °F 64 °F 82 °F (2004)
Min Temperature 44 °F 44 °F 28 °F (1968)
Degree Days  
Heating Degree Days 4    
Growing Degree Days 11 (Base 50)    
Moisture  
Dew Point 61 °F    
Average Humidity 88    
Maximum Humidity 92    
Minimum Humidity 63    
Precipitation  
Precipitation 1.44 in - - ()
Sea Level Pressure  
Sea Level Pressure 29.90 in    
Wind  
Wind Speed 4 mph ()    
Max Wind Speed 14 mph    
Max Gust Speed 26 mph    
Visibility 7.7 miles    
Events Fog , Rain    
Averages and records for this station are not official NWS values.
T = Trace of Precipitation, MM = Missing Value Source: Averaged Metar Reports

Daily Weather History Graph

Daily Weather History Graph

Search for Another Location

Airport or City:

Astronomy

Oct. 31, 2019 Rise Set
Actual Time 7:44 AM EDT 6:26 PM EDT
Civil Twilight 7:17 AM EDT 6:53 PM EDT
Nautical Twilight 6:47 AM EDT 7:23 PM EDT
Astronomical Twilight 6:17 AM EDT 7:53 PM EDT
Moon 11:26 AM EDT (10/31) 9:26 PM EDT (10/31)
Length of Visible Light 11h 35m
Length of Day
10h 42m
Waxing Crescent, 15% of the Moon is Illuminated
Oct 31
Waxing Crescent
Nov 4
First Quarter
Nov 12
Full
Nov 19
Last Quarter
Nov 26
New

Hourly Weather History & Observations

Time (EDT) Temp. Windchill Dew Point Humidity Pressure Visibility Wind Dir Wind Speed Gust Speed Precip Events Conditions
12:15 AM 62.2 °F - 59.9 °F 92% 30.05 in 10.0 mi WNW 3.5 mph - N/A   Overcast
12:35 AM 62.2 °F - 59.9 °F 92% 30.04 in 3.0 mi Calm Calm - N/A Rain Light Rain
12:55 AM 62.2 °F - 59.9 °F 92% 30.04 in 3.0 mi Calm Calm - N/A   Drizzle
1:15 AM 62.6 °F - 59.9 °F 91% 30.04 in 2.5 mi Calm Calm - N/A Rain Light Rain
1:35 AM 62.6 °F - 59.9 °F 91% 30.03 in 3.0 mi Calm Calm - 0.09 in Rain Rain
1:55 AM 62.8 °F - 60.3 °F 91% 30.02 in 5.0 mi Calm Calm - 0.10 in   Drizzle
2:15 AM 62.8 °F - 60.3 °F 91% 30.02 in 5.0 mi WNW 3.5 mph - N/A Rain Rain
2:35 AM 62.2 °F - 59.9 °F 92% 30.02 in 1.8 mi Calm Calm - 0.03 in Rain Rain
3:15 AM 62.6 °F - 60.1 °F 91% 30.00 in 10.0 mi Calm Calm - 0.04 in Rain Light Rain
3:35 AM 62.8 °F - 60.3 °F 91% 29.99 in 5.0 mi Calm Calm - 0.15 in Rain Light Rain
3:55 AM 62.8 °F - 60.3 °F 91% 29.98 in 7.0 mi Calm Calm - 0.16 in Rain Rain
4:15 AM 63.5 °F - 61.0 °F 91% 29.97 in 5.0 mi Calm Calm - N/A   Drizzle
4:55 AM 63.7 °F - 61.2 °F 91% 29.96 in 10.0 mi Calm Calm - 0.01 in   Overcast
5:15 AM 64.0 °F - 61.7 °F 92% 29.96 in 10.0 mi Calm Calm - N/A   Overcast
5:35 AM 64.0 °F - 61.5 °F 91% 29.96 in 10.0 mi Calm Calm - N/A   Overcast
5:55 AM 64.0 °F - 61.7 °F 92% 29.96 in 10.0 mi Calm Calm - N/A   Overcast
6:15 AM 63.9 °F - 61.3 °F 91% 29.95 in 7.0 mi Calm Calm - N/A   Overcast
6:35 AM 63.7 °F - 61.2 °F 91% 29.96 in 10.0 mi Calm Calm - N/A   Overcast
6:55 AM 63.7 °F - 61.2 °F 91% 29.95 in 7.0 mi Calm Calm - N/A   Overcast
7:15 AM 64.0 °F - 61.7 °F 92% 29.94 in 7.0 mi Calm Calm - 0.05 in Rain Rain
7:35 AM 64.0 °F - 61.7 °F 92% 29.93 in 10.0 mi Calm Calm - 0.08 in Rain Light Rain
7:55 AM 64.8 °F - 62.4 °F 92% 29.93 in 10.0 mi SSE 3.5 mph - 0.09 in Rain Light Rain
8:15 AM 64.9 °F - 62.6 °F 92% 29.93 in 5.0 mi SSE 4.6 mph - N/A Rain Light Rain
8:35 AM 65.5 °F - 63.0 °F 92% 29.93 in 2.0 mi SSE 5.8 mph - 0.02 in Rain Light Rain
8:55 AM 66.4 °F - 64.0 °F 92% 29.93 in 2.5 mi SSE 3.5 mph - 0.04 in   Light Drizzle
9:15 AM 67.3 °F - 64.9 °F 92% 29.93 in 0.5 mi SSE 8.1 mph - 0.02 in Fog Fog
9:35 AM 68.5 °F - 66.2 °F 92% 29.93 in 4.0 mi SSE 4.6 mph - 0.02 in   Overcast
9:55 AM 69.1 °F - 66.7 °F 92% 29.93 in 4.0 mi SSE 6.9 mph - 0.02 in   Overcast
10:15 AM 69.8 °F - 67.3 °F 92% 29.92 in 5.0 mi SSE 6.9 mph - N/A   Light Drizzle
10:35 AM 70.2 °F - 67.8 °F 92% 29.92 in 7.0 mi South 3.5 mph - 0.01 in Rain Light Rain
10:55 AM 70.7 °F - 68.2 °F 92% 29.90 in 3.0 mi SSE 5.8 mph - 0.09 in Rain Rain
11:15 AM 71.1 °F - 68.5 °F 92% 29.88 in 7.0 mi SSE 9.2 mph - 0.01 in   Light Drizzle
11:35 AM 71.6 °F - 69.3 °F 92% 29.88 in 10.0 mi South 8.1 mph - 0.01 in   Overcast
11:55 AM 72.3 °F - 69.8 °F 92% 29.87 in 10.0 mi South 8.1 mph 18.4 mph 0.02 in Rain Light Rain
12:15 PM 72.5 °F - 69.8 °F 91% 29.85 in 10.0 mi South 9.2 mph 17.3 mph 0.01 in   Overcast
12:35 PM 72.7 °F - 70.0 °F 91% 29.84 in 10.0 mi South 5.8 mph - 0.01 in   Mostly Cloudy
12:55 PM 73.2 °F - 70.5 °F 91% 29.83 in 10.0 mi SSW 5.8 mph - 0.01 in Rain Light Rain
1:15 PM 73.4 °F - 70.7 °F 91% 29.81 in 5.0 mi South 6.9 mph - N/A Rain Rain
1:55 PM 74.7 °F - 70.7 °F 87% 29.79 in 10.0 mi South 9.2 mph 20.7 mph 0.01 in Rain Light Rain
2:15 PM 75.6 °F - 70.7 °F 85% 29.79 in 10.0 mi South 10.4 mph 23.0 mph N/A   Mostly Cloudy
2:35 PM 76.6 °F - 70.7 °F 82% 29.77 in 10.0 mi South 8.1 mph 19.6 mph N/A   Mostly Cloudy
2:55 PM 77.2 °F - 70.0 °F 78% 29.76 in 10.0 mi SSW 8.1 mph 20.7 mph N/A   Mostly Cloudy
3:15 PM 77.0 °F - 70.0 °F 79% 29.76 in 10.0 mi South 10.4 mph 17.3 mph N/A   Mostly Cloudy
3:55 PM 71.2 °F - 68.7 °F 92% 29.76 in 4.0 mi WSW 6.9 mph - 0.27 in Rain Rain
4:15 PM 71.2 °F - 68.9 °F 92% 29.75 in 4.0 mi SSW 11.5 mph 21.9 mph 0.20 in Rain Heavy Rain
4:35 PM 71.4 °F - 68.9 °F 92% 29.74 in 10.0 mi SSW 6.9 mph - 0.28 in Rain Light Rain
4:55 PM 71.2 °F - 68.9 °F 92% 29.73 in 7.0 mi South 3.5 mph - 0.31 in Rain Rain
5:15 PM 71.2 °F - 68.7 °F 92% 29.73 in 7.0 mi SSW 6.9 mph - 0.04 in Rain Light Rain
5:55 PM 71.6 °F - 68.9 °F 91% 29.73 in 10.0 mi SSW 10.4 mph 20.7 mph 0.13 in Rain Light Rain
6:15 PM 71.2 °F - 68.9 °F 92% 29.73 in 10.0 mi SSW 12.7 mph 20.7 mph 0.01 in   Light Drizzle
6:35 PM 71.1 °F - 68.5 °F 92% 29.72 in 10.0 mi South 4.6 mph - 0.01 in   Light Drizzle
6:55 PM 71.1 °F - 68.5 °F 92% 29.73 in 10.0 mi SSW 12.7 mph 20.7 mph 0.01 in   Overcast
7:15 PM 64.4 °F - 60.8 °F 88% 29.78 in 10.0 mi WNW 8.1 mph 23.0 mph 0.02 in Rain Rain
7:35 PM 59.9 °F - 57.4 °F 91% 29.78 in 10.0 mi West 8.1 mph - 0.08 in Rain Light Rain
7:55 PM 59.9 °F - 56.8 °F 90% 29.80 in 10.0 mi West 8.1 mph - 0.09 in   Overcast
8:15 PM 58.8 °F - 56.3 °F 91% 29.83 in 7.0 mi WNW 9.2 mph - 0.04 in Rain Light Rain
8:35 PM 54.7 °F - 50.5 °F 86% 29.86 in 10.0 mi WNW 9.2 mph 26.5 mph 0.05 in   Light Drizzle
8:55 PM 53.6 °F - 50.2 °F 88% 29.87 in 10.0 mi WNW 5.8 mph - 0.05 in Rain Light Rain
9:15 PM 53.4 °F - 48.0 °F 82% 29.88 in 10.0 mi WNW 5.8 mph 17.3 mph N/A   Mostly Cloudy
9:35 PM 52.2 °F - 43.0 °F 71% 29.90 in 10.0 mi WNW 11.5 mph 20.7 mph N/A   Mostly Cloudy
9:55 PM 50.2 °F - 40.5 °F 69% 29.93 in 10.0 mi WNW 11.5 mph 19.6 mph N/A   Scattered Clouds
10:15 PM 48.9 °F - 37.0 °F 64% 29.95 in 10.0 mi WNW 13.8 mph 21.9 mph N/A   Clear
10:35 PM 48.2 °F - 36.7 °F 64% 29.95 in 10.0 mi NW 10.4 mph 21.9 mph N/A   Clear
10:55 PM 47.1 °F - 36.5 °F 67% 29.97 in 10.0 mi NW 8.1 mph - N/A   Clear
11:15 PM 46.4 °F 42.4 °F 36.7 °F 69% 29.99 in 10.0 mi WNW 8.1 mph 16.1 mph N/A   Clear
11:35 PM 45.1 °F 38.8 °F 33.4 °F 64% 30.00 in 10.0 mi NW 13.8 mph 25.3 mph N/A   Clear
11:55 PM 44.1 °F 38.6 °F 32.0 °F 63% 30.04 in 10.0 mi NW 10.4 mph 23.0 mph N/A   Clear